Stillwater, OK

6:25 AM CST on November 18, 2017 (GMT -0600)
Stillwater Municipal

Weather History for KSWO - January, 2013

Change the Weather History Date:

Tuesday, January 22, 2013

  Actual Average Record
Temperature  
Mean Temperature 38 °F -  
Max Temperature 57 °F 46 °F 77 °F (2009)
Min Temperature 19 °F 24 °F 12 °F (2008)
Degree Days  
Heating Degree Days 27    
Moisture  
Dew Point 21 °F    
Average Humidity 56    
Maximum Humidity 82    
Minimum Humidity 27    
Precipitation  
Precipitation 0.00 in - - ()
Sea Level Pressure  
Sea Level Pressure 30.23 in    
Wind  
Wind Speed 5 mph (SE)    
Max Wind Speed 14 mph    
Max Gust Speed -    
Visibility 10 miles    
Events      
Averages and records for this station are not official NWS values.
T = Trace of Precipitation, MM = Missing Value Source: NWS Daily Summary

Daily Weather History Graph

Daily Weather History Graph

Search for Another Location

Airport or City:

Trip Planner

Search our weather history database for the weather conditions in past years. The results will help you decide how hot, cold, wet, or windy it might be!

Date:

Astronomy

Jan. 22, 2013 Rise Set
Actual Time 7:35 AM CST 5:44 PM CST
Civil Twilight 7:08 AM CST 6:12 PM CST
Nautical Twilight 6:36 AM CST 6:43 PM CST
Astronomical Twilight 6:06 AM CST 7:14 PM CST
Moon 2:09 PM CST (1/22) 3:57 AM CST (1/22)
Length of Visible Light 11h 04m
Length of Day
10h 09m
Waxing Gibbous, 83% of the Moon is Illuminated
Jan 22
Waxing Gibbous
Jan 26
Full
Feb 3
Last Quarter
Feb 10
New
Feb 17
First Quarter

Hourly Weather History & Observations

Time (CST) Temp. Windchill Dew Point Humidity Pressure Visibility Wind Dir Wind Speed Gust Speed Precip Events Conditions
12:53 AM 23.0 °F 15.8 °F 15.1 °F 72% 30.31 in 10.0 mi NE 5.8 mph - N/A   Clear
1:53 AM 25.0 °F - 16.0 °F 69% 30.30 in 10.0 mi Calm Calm - N/A   Clear
2:53 AM 25.0 °F 20.7 °F 16.0 °F 69% 30.29 in 10.0 mi SE 3.5 mph - N/A   Clear
3:53 AM 23.0 °F 17.0 °F 15.1 °F 72% 30.27 in 10.0 mi ESE 4.6 mph - N/A   Clear
5:53 AM 21.0 °F - 15.1 °F 78% 30.30 in 10.0 mi Calm Calm - N/A   Clear
6:53 AM 19.9 °F 13.4 °F 15.1 °F 81% 30.30 in 10.0 mi SE 4.6 mph - N/A   Clear
7:53 AM 21.9 °F 17.2 °F 17.1 °F 82% 30.28 in 10.0 mi ESE 3.5 mph - N/A   Clear
9:53 AM 30.9 °F 24.3 °F 19.0 °F 61% 30.27 in 10.0 mi SSE 6.9 mph - N/A   Clear
10:53 AM 39.9 °F 32.1 °F 19.9 °F 45% 30.26 in 10.0 mi South 13.8 mph - N/A   Clear
11:53 AM 46.9 °F - 19.9 °F 34% 30.26 in 10.0 mi SSW 8.1 mph - N/A   Clear
12:53 PM 50.0 °F - 21.0 °F 32% 30.22 in 10.0 mi Variable 4.6 mph - N/A   Clear
1:53 PM 54.0 °F - 21.9 °F 29% 30.18 in 10.0 mi South 8.1 mph - N/A   Clear
2:53 PM 57.0 °F - 23.0 °F 27% 30.15 in 10.0 mi South 9.2 mph - N/A   Clear
3:53 PM 57.9 °F - 24.1 °F 27% 30.15 in 10.0 mi South 6.9 mph - N/A   Clear
4:53 PM 57.0 °F - 25.0 °F 29% 30.16 in 10.0 mi SSE 4.6 mph - N/A   Clear
6:53 PM 43.0 °F 41.3 °F 24.1 °F 47% 30.19 in 10.0 mi East 3.5 mph - N/A   Clear
7:53 PM 39.9 °F 37.8 °F 25.0 °F 55% 30.19 in 10.0 mi SE 3.5 mph - N/A   Clear
8:53 PM 39.9 °F 37.8 °F 25.0 °F 55% 30.19 in 10.0 mi ESE 3.5 mph - N/A   Unknown
9:53 PM 35.1 °F 31.0 °F 25.0 °F 67% 30.22 in 10.0 mi East 4.6 mph - N/A   Clear
10:53 PM 35.1 °F 32.2 °F 25.0 °F 67% 30.22 in 10.0 mi ESE 3.5 mph - N/A   Clear
11:53 PM 33.1 °F 30.0 °F 25.0 °F 72% 30.22 in 10.0 mi East 3.5 mph - N/A   Clear